GW5556 Weather Reports


time (UTC)temp
C
wind
direction
speed
KPH
gust
KPH
rain 1hr
cm
rain 24hr
cm
rain mn
cm
humidity
%
barometer
mb
20260508110017 3 290 0.0 1.6 0.03 0.23 0.03 75 1015.2
20260508104513 2 291 0.0 1.6 0.03 0.23 0.03 75 1015.1
20260508103012 2 326 0.0 1.6 0.03 0.23 0.03 75 1014.8
20260508101510 2 326 0.0 4.8 0.03 0.23 0.03 74 1014.6
20260508100018 2 326 0.0 3.2 0.00 0.20 0.00 72 1014.3
20260508094513 3 326 1.6 12.9 0.00 0.20 0.00 75 1014.2
20260508093013 3 275 0.0 3.2 0.00 0.20 0.00 75 1014.1
20260508091516 3 275 0.0 3.2 0.00 0.20 0.00 75 1014.2
20260508090017 3 275 1.6 6.4 0.00 0.20 0.00 75 1014.0
20260508084516 3 275 0.0 4.8 0.00 0.20 0.00 75 1013.8
20260508083013 3 250 0.0 3.2 0.00 0.20 0.00 74 1013.6
20260508081534 4 250 0.0 4.8 0.00 0.20 0.00 74 1013.5
20260508080016 5 246 0.0 4.8 0.00 0.20 0.00 75 1013.4
20260508074516 4 244 0.0 3.2 0.00 0.20 0.00 74 1013.2
20260508073018 5 244 3.2 6.4 0.00 0.23 0.00 74 1013.2
20260508071534 5 272 1.6 4.8 0.00 0.23 0.00 74 1013.2
20260508070016 5 272 0.0 9.7 0.00 0.23 0.00 74 1013.2
20260508064516 5 310 0.0 8.0 0.00 0.23 0.00 73 1013.1
20260508063029 5 360 1.6 6.4 0.00 0.23 0.00 73 1013.0
20260508061520 5 53 1.6 4.8 0.00 0.23 0.00 72 1013.1
20260508060021 6 5 0.0 4.8 0.00 0.23 0.00 72 1013.2
20260508054516 6 33 0.0 4.8 0.00 0.23 0.00 71 1013.2
20260508053014 6 49 0.0 4.8 0.00 0.23 0.00 71 1013.1
20260508051512 6 317 1.6 3.2 0.00 0.23 0.00 71 1013.0
20260508050009 6 317 0.0 4.8 0.00 0.23 0.00 71 1012.8
20260508044527 7 316 1.6 6.4 0.00 0.23 0.00 71 1012.6
20260508043020 6 315 1.6 9.7 0.00 0.23 0.00 71 1012.4
20260508041515 7 323 1.6 6.4 0.00 0.23 0.00 70 1012.2
20260508040021 7 325 3.2 6.4 0.00 0.23 0.00 71 1012.3
20260508034516 7 325 0.0 3.2 0.00 0.23 0.23 71 1012.0
20260508033024 7 325 1.6 4.8 0.00 0.23 0.23 71 1011.8
20260508031516 8 325 3.2 6.4 0.00 0.28 0.23 71 1011.7
20260508030020 8 325 0.0 4.8 0.00 0.33 0.23 71 1011.8
20260508024532 8 325 1.6 4.8 0.00 0.33 0.23 71 1011.4
20260508023004 8 325 0.0 6.4 0.00 0.36 0.23 70 1011.3
20260508021505 10 325 3.2 4.8 0.00 0.36 0.23 69 1011.2
20260508020014 9 327 6.4 12.9 0.00 0.36 0.23 69 1011.1
20260508014514 10 324 1.6 6.4 0.00 0.36 0.23 69 1010.9
20260508013003 10 325 0.0 3.2 0.00 0.36 0.23 67 1010.6
20260508011505 11 325 0.0 3.2 0.00 0.36 0.23 64 1010.3
20260508010004 12 325 1.6 11.3 0.00 0.36 0.23 61 1010.1
20260508004513 12 333 3.2 6.4 0.00 0.36 0.23 56 1010.0
20260508003015 13 306 3.2 11.3 0.00 0.36 0.23 56 1010.2
20260508001504 13 350 4.8 14.5 0.00 0.36 0.23 57 1010.2
20260508000008 13 333 4.8 16.1 0.00 0.36 0.23 65 1010.1
20260507234510 13 316 3.2 9.7 0.00 0.36 0.23 70 1009.8
20260507233025 14 321 3.2 6.4 0.00 0.36 0.23 71 1009.7
20260507231532 14 276 0.0 3.2 0.00 0.36 0.23 71 1009.4
20260507230005 14 338 0.0 1.6 0.00 0.36 0.23 71 1009.4
20260507224510 14 28 0.0 3.2 0.00 0.36 0.23 70 1009.2
20260507223013 14 25 0.0 4.8 0.00 0.36 0.23 69 1008.9
20260507221513 15 34 4.8 14.5 0.00 0.36 0.23 68 1008.7
20260507220021 15 36 1.6 6.4 0.00 0.36 0.23 68 1008.9
20260507214510 15 49 1.6 9.7 0.00 0.36 0.23 68 1008.8
20260507213014 14 78 4.8 11.3 0.00 0.36 0.23 67 1008.7
20260507211521 14 92 4.8 12.9 0.00 0.36 0.23 70 1008.5
20260507210011 13 43 6.4 12.9 0.00 0.36 0.23 70 1008.5
20260507204512 13 103 6.4 14.5 0.00 0.36 0.23 70 1008.5
20260507203035 13 101 4.8 11.3 0.00 0.36 0.23 72 1008.6
20260507201511 13 92 1.6 6.4 0.03 0.36 0.23 72 1008.6
20260507200019 12 111 1.6 8.0 0.03 0.36 0.23 72 1008.8
20260507194520 12 54 0.0 8.0 0.03 0.36 0.23 72 1009.2
20260507193018 12 41 4.8 9.7 0.03 0.36 0.23 71 1009.1
20260507191512 12 320 6.4 14.5 0.00 0.33 0.20 71 1009.2
20260507190014 13 54 4.8 12.9 0.00 0.33 0.20 72 1009.4
20260507184520 13 78 1.6 12.9 0.00 0.33 0.20 72 1009.4
20260507183024 13 47 8.0 17.7 0.00 0.33 0.20 72 1009.3
20260507181524 13 49 8.0 16.1 0.00 0.33 0.20 72 1009.4
20260507180023 13 40 12.9 20.9 0.00 0.33 0.20 72 1009.0
20260507174516 13 94 3.2 16.1 0.00 0.33 0.20 72 1009.3
20260507173024 13 63 6.4 17.7 0.10 0.33 0.20 72 1009.1
20260507171510 13 42 11.3 24.1 0.18 0.33 0.20 71 1009.2
20260507170008 14 350 8.0 16.1 0.18 0.33 0.20 71 1008.9
20260507164514 15 75 3.2 12.9 0.18 0.33 0.20 72 1008.8
20260507163011 15 37 3.2 9.7 0.08 0.25 0.10 71 1009.2
20260507161514 15 42 6.4 19.3 0.00 0.18 0.03 70 1009.1
20260507160015 15 64 1.6 14.5 0.00 0.18 0.03 71 1009.1
20260507154509 15 80 6.4 12.9 0.00 0.18 0.03 71 1008.9
20260507153018 15 56 6.4 14.5 0.00 0.18 0.03 70 1009.1
20260507151522 15 83 6.4 17.7 0.00 0.18 0.03 70 1009.0
20260507150024 15 63 4.8 11.3 0.00 0.18 0.03 71 1009.2
20260507144525 15 62 4.8 12.9 0.00 0.18 0.03 71 1009.1
20260507143013 15 46 3.2 14.5 0.00 0.18 0.03 72 1008.8
20260507141519 15 33 4.8 12.9 0.00 0.20 0.03 73 1008.7
20260507140027 15 49 4.8 8.0 0.00 0.20 0.03 74 1008.7
20260507134524 15 28 4.8 14.5 0.00 0.20 0.03 74 1008.6
20260507133024 15 15 6.4 14.5 0.00 0.20 0.03 74 1008.9
20260507131517 15 108 4.8 12.9 0.00 0.20 0.03 74 1009.0
20260507130019 15 67 1.6 9.7 0.00 0.20 0.03 75 1009.6
20260507124530 15 63 3.2 8.0 0.00 0.20 0.03 76 1009.4
20260507123017 15 102 3.2 11.3 0.00 0.20 0.03 76 1009.6
20260507121526 15 91 3.2 9.7 0.00 0.20 0.03 76 1009.7
20260507120018 16 86 4.8 11.3 0.00 0.20 0.03 76 1009.2
20260507114521 16 81 3.2 11.3 0.00 0.20 0.03 76 1008.9
20260507113013 16 87 3.2 9.7 0.00 0.20 0.03 76 1009.0
20260507111509 16 69 3.2 11.3 0.00 0.20 0.03 76 1008.8